{"data":{"norad_id":56060,"epoch":"2026-09-20T03:05:05.023104Z","epoch_age_seconds":54011,"freshness":"FRESH","line1":"1 56060U 23043Q   26263.12853036  .00000004  00000+0 -21120-4 0  9990","line2":"2 56060  87.9284 225.0774 0001956  74.6027 285.5323 13.21824326170795","mean_motion":13.21824326,"eccentricity":0.0001956,"inclination_deg":87.9284,"raan_deg":225.0774,"arg_perigee_deg":74.6027,"mean_anomaly_deg":285.5323,"bstar":-2.112e-5,"rev_number":17079,"period_min":108.94034643451,"perigee_km":1176.2818143079,"apogee_km":1179.2376811156,"semimajor_km":7555.8967477117,"source":"CELESTRAK","updated_at":"2026-09-20T09:00:44.789296Z"}}